Location: Unspecified
(0.0000°N, 0.0000°E)
Time: 18:02:26
(UTC+00:00)

Hubble Space Telescope - Pass Details

Date: 19 January 2026
Orbit: 479 x 481 km, 28.5° (Epoch: 19 January)

Event Time Altitude Azimuth Distance (km) Brightness Sun altitude
Exits shadow 04:11:23 19° 63° (ENE) 1,181 2.9 -27.8°
Drops below altitude 10° 04:13:02 10° 85° (E) 1,638 4.0 -27.4°
Sets 04:15:31 0° 99° (E) 2,517 5.4 -26.8°
